Satellite: MET-3/5 Catalog number: 21655 Epoch time: 07080.95934817 Element set: 0272 Inclination: 082.5505 deg RA of node: 064.5655 deg Eccentricity: 0.0014613 Arg of perigee: 068.5910 deg Mean anomaly: 291.6769 deg Mean motion: 13.17010388 rev/day Decay rate: 5.1e-07 rev/day^2 Epoch rev: 74992 Checksum: 319
Satellite: MET-2/21 Catalog number: 22782 Epoch time: 07080.57861710 Element set: 0780 Inclination: 082.5447 deg RA of node: 111.4257 deg Eccentricity: 0.0023793 Arg of perigee: 119.8395 deg Mean anomaly: 240.5136 deg Mean motion: 13.83616410 rev/day Decay rate: 3.9e-07 rev/day^2 Epoch rev: 68440 Checksum: 301
Satellite: OKEAN-4 Catalog number: 23317 Epoch time: 07080.50365107 Element set: 0217 Inclination: 082.5416 deg RA of node: 018.3315 deg Eccentricity: 0.0022062 Arg of perigee: 177.3043 deg Mean anomaly: 182.8280 deg Mean motion: 14.82478905 rev/day Decay rate: 1.7e-07 rev/day^2 Epoch rev: 67106 Checksum: 272
Satellite: NOAA-14 Catalog number: 23455 Epoch time: 07080.67242476 Element set: 0570 Inclination: 098.9989 deg RA of node: 146.3606 deg Eccentricity: 0.0008970 Arg of perigee: 352.0756 deg Mean anomaly: 008.0298 deg Mean motion: 14.13706110 rev/day Decay rate: 1.07e-06 rev/day^2 Epoch rev: 63027 Checksum: 306
Satellite: SICH-1 Catalog number: 23657 Epoch time: 07080.48414464 Element set: 0019 Inclination: 082.5311 deg RA of node: 159.2851 deg Eccentricity: 0.0024305 Arg of perigee: 167.7487 deg Mean anomaly: 192.4306 deg Mean motion: 14.81462597 rev/day Decay rate: 1.96e-06 rev/day^2 Epoch rev: 62304 Checksum: 302
Satellite: NOAA-15 Catalog number: 25338 Epoch time: 07080.73141664 Element set: 0930 Inclination: 098.5299 deg RA of node: 079.8862 deg Eccentricity: 0.0009753 Arg of perigee: 285.9315 deg Mean anomaly: 074.0778 deg Mean motion: 14.24631890 rev/day Decay rate: 9.9e-07 rev/day^2 Epoch rev: 46023 Checksum: 340
Satellite: RESURS Catalog number: 25394 Epoch time: 07081.79093271 Element set: 600 Inclination: 098.4504 deg RA of node: 139.7004 deg Eccentricity: 0.0002425 Arg of perigee: 077.2558 deg Mean anomaly: 282.8892 deg Mean motion: 14.24130448 rev/day Decay rate: -8.0e-08 rev/day^2 Epoch rev: 45205 Checksum: 290
Satellite: FENGYUN1 Catalog number: 25730 Epoch time: 07081.83492066 Element set: 24 Inclination: 098.6851 deg RA of node: 068.9901 deg Eccentricity: 0.0022927 Arg of perigee: 013.4135 deg Mean anomaly: 346.7634 deg Mean motion: 14.07443515 rev/day Decay rate: 6.3e-07 rev/day^2 Epoch rev: 40531 Checksum: 286
Satellite: OKEAN-0 Catalog number: 25860 Epoch time: 07080.56109740 Element set: 0008 Inclination: 097.7320 deg RA of node: 086.9040 deg Eccentricity: 0.0000867 Arg of perigee: 035.4262 deg Mean anomaly: 324.6993 deg Mean motion: 14.73438184 rev/day Decay rate: 7.2e-07 rev/day^2 Epoch rev: 41259 Checksum: 294
Satellite: NOAA-16 Catalog number: 26536 Epoch time: 07080.70305152 Element set: 0343 Inclination: 099.1089 deg RA of node: 056.1573 deg Eccentricity: 0.0011203 Arg of perigee: 061.5096 deg Mean anomaly: 298.7224 deg Mean motion: 14.12413093 rev/day Decay rate: 2.12e-06 rev/day^2 Epoch rev: 33475 Checksum: 273
Satellite: NOAA-17 Catalog number: 27453 Epoch time: 07081.38297428 Element set: 353 Inclination: 098.5867 deg RA of node: 152.7427 deg Eccentricity: 0.0011342 Arg of perigee: 350.8074 deg Mean anomaly: 009.2910 deg Mean motion: 14.23863449 rev/day Decay rate: 1.60e-06 rev/day^2 Epoch rev: 24636 Checksum: 311
Satellite: NOAA-18 Catalog number: 28654 Epoch time: 07080.75257483 Element set: 0890 Inclination: 098.8221 deg RA of node: 023.5362 deg Eccentricity: 0.0014601 Arg of perigee: 153.1109 deg Mean anomaly: 207.0815 deg Mean motion: 14.11047937 rev/day Decay rate: 4.01e-06 rev/day^2 Epoch rev: 09452 Checksum: 285
/EX SB KEPS @ AMSAT $ORB07081.M Orbital Elements 07081.MISC
HR AMSAT ORBITAL ELEMENTS FOR MANNED AND MISCELLANEOUS SATELLITES FROM WA5QGD FORT WORTH,TX March 22, 2007 Send SUBSCRIBE KEPS/UNSUBSCRIBE KEPS to majordomo@amsat.org only BID: ORB07081.M TO ALL RADIO AMATEURS BT
Satellite: HUBBLE Catalog number: 20580 Epoch time: 07080.92607148 Element set: 0836 Inclination: 028.4668 deg RA of node: 039.1219 deg Eccentricity: 0.0003706 Arg of perigee: 247.5515 deg Mean anomaly: 112.4681 deg Mean motion: 15.00208183 rev/day Decay rate: 3.45e-06 rev/day^2 Epoch rev: 72684 Checksum: 287
Satellite: UARS Catalog number: 21701 Epoch time: 07080.95874339 Element set: 0024 Inclination: 056.9773 deg RA of node: 332.2375 deg Eccentricity: 0.0096973 Arg of perigee: 027.4267 deg Mean anomaly: 333.1861 deg Mean motion: 15.47206882 rev/day Decay rate: 5.234e-05 rev/day^2 Epoch rev: 85224 Checksum: 315
Satellite: PO-34 Catalog number: 25520 Epoch time: 07080.93906703 Element set: 0700 Inclination: 028.4607 deg RA of node: 332.6758 deg Eccentricity: 0.0005190 Arg of perigee: 025.3814 deg Mean anomaly: 334.7039 deg Mean motion: 15.16950289 rev/day Decay rate: 4.75e-06 rev/day^2 Epoch rev: 46426 Checksum: 302
Satellite: ISS Catalog number: 25544 Epoch time: 07081.88636771 Element set: 876 Inclination: 051.6355 deg RA of node: 189.8840 deg Eccentricity: 0.0014653 Arg of perigee: 340.5672 deg Mean anomaly: 121.2970 deg Mean motion: 15.77825881 rev/day Decay rate: 1.3783e-04 rev/day^2 Epoch rev: 47714 Checksum: 338
Satellite: OO-38 Catalog number: 26063 Epoch time: 07081.41136909 Element set: 868 Inclination: 100.2237 deg RA of node: 068.0130 deg Eccentricity: 0.0037201 Arg of perigee: 044.2463 deg Mean anomaly: 316.1691 deg Mean motion: 14.35799398 rev/day Decay rate: -1.0e-07 rev/day^2 Epoch rev: 37459 Checksum: 294
Satellite: NO-45 Catalog number: 26932 Epoch time: 07080.97990007 Element set: 0555 Inclination: 067.0516 deg RA of node: 011.8827 deg Eccentricity: 0.0005495 Arg of perigee: 291.0116 deg Mean anomaly: 069.0394 deg Mean motion: 14.29551358 rev/day Decay rate: -8.9e-07 rev/day^2 Epoch rev: 28567 Checksum: 328
Satellite: UWE-1 Catalog number: 28892 Epoch time: 07080.73226056 Element set: 705 Inclination: 098.1409 deg RA of node: 339.0723 deg Eccentricity: 0.0018250 Arg of perigee: 027.3866 deg Mean anomaly: 332.8275 deg Mean motion: 14.59477113 rev/day Decay rate: 7.2e-07 rev/day^2 Epoch rev: 7445 Checksum: 306
Satellite: CO-58 Catalog number: 28895 Epoch time: 07079.27416027 Element set: 0685 Inclination: 098.1439 deg RA of node: 337.8199 deg Eccentricity: 0.0018775 Arg of perigee: 032.2176 deg Mean anomaly: 328.0164 deg Mean motion: 14.59526720 rev/day Decay rate: 2.24e-06 rev/day^2 Epoch rev: 07412 Checksum: 336
Satellite: NCUBE2 Catalog number: 28897 Epoch time: 07080.24992411 Element set: 0208 Inclination: 098.1405 deg RA of node: 338.7414 deg Eccentricity: 0.0018101 Arg of perigee: 030.7973 deg Mean anomaly: 329.4283 deg Mean motion: 14.59687585 rev/day Decay rate: 1.63e-06 rev/day^2 Epoch rev: 06654 Checksum: 319
Satellite: NMARS Catalog number: 29662 Epoch time: 07081.69860308 Element set: 143 Inclination: 051.6372 deg RA of node: 183.4952 deg Eccentricity: 0.0012693 Arg of perigee: 001.1634 deg Mean anomaly: 358.9430 deg Mean motion: 15.96164437 rev/day Decay rate: 9.4645e-04 rev/day^2 Epoch rev: 1446 Checksum: 309
Satellite: FCAL Catalog number: 29667 Epoch time: 07080.71525755 Element set: 0103 Inclination: 051.6352 deg RA of node: 191.9469 deg Eccentricity: 0.0015789 Arg of perigee: 005.0375 deg Mean anomaly: 355.0783 deg Mean motion: 15.84897008 rev/day Decay rate: 1.2935e-04 rev/day^2 Epoch rev: 01411 Checksum: 312
Satellite: FALCON Catalog number: 30776 Epoch time: 07080.94995172 Element set: 0030 Inclination: 035.4343 deg RA of node: 021.4829 deg Eccentricity: 0.0001113 Arg of perigee: 022.4296 deg Mean anomaly: 337.6466 deg Mean motion: 15.02657828 rev/day Decay rate: 2.85e-06 rev/day^2 Epoch rev: 00192 Checksum: 281
/EX